Regional Weather Roundup
Issued by NWS

Home | Current Version | Previous Version | Text Only | Print | Product List | Glossary On
Versions: 1 2 3 4 5 6 7 8 9 10 11 12 13 14 15 16 17 18 19 20 21 22 23 24 25 26 27 28 29 30 31 32 33 34 35 36 37 38 39 40 41 42 43 44 45 46 47 48 49 50
000
ASUS43 KFSD 160110
RWRSD

WEATHER ROUNDUP FOR SOUTH DAKOTA
NATIONAL WEATHER SERVICE SIOUX FALLS SD
700 PM CST FRI DEC 15 2017

NOTE: "FAIR" INDICATES FEW OR NO CLOUDS BELOW 12,000 FEET WITH NO
SIGNIFICANT WEATHER AND/OR OBSTRUCTIONS TO VISIBILITY.


SDZ001>005-009-010-012>017-160200-
NORTHWEST AND NORTH CENTRAL SOUTH DAKOTA

CITY           SKY/WX    TMP DP  RH WIND       PRES   REMARKS
BUFFALO          N/A     38  20  48 NW13      29.57R
FAITH            N/A     41  21  44 W14       29.62S
MOBRIDGE       CLOUDY    36  26  67 CALM      29.55S
$$

SDZ012>016-024>037-041>051-057-063-072>074-160200-
SOUTHWEST AND SOUTH CENTRAL SOUTH DAKOTA

CITY           SKY/WX    TMP DP  RH WIND       PRES   REMARKS
RAPID CTY ARPT CLOUDY    44  16  32 SE3       29.66F
PIERRE         CLOUDY    43  26  51 W10       29.61F
CUSTER         CLOUDY    38  15  39 W13       29.72F
ELLSWORTH AFB  CLOUDY    44  15  31 NW3       29.65F
PHILIP         CLOUDY    41  24  51 W7        29.65S
PINE RIDGE     CLOUDY    43  20  39 SW6       29.72S
SPEARFISH      FAIR      48  14  25 W8        29.68S
WINNER         FAIR      44  29  55 SW9       29.66F
$$

SDZ004>011-016>023-039-040-160200-
NORTHEAST SOUTH DAKOTA

CITY           SKY/WX    TMP DP  RH WIND       PRES   REMARKS
ABERDEEN       CLOUDY    36  26  67 S6        29.59F
WATERTOWN      CLOUDY    33  28  81 S10       29.59F WCI  25
BROOKINGS      CLOUDY    35  26  69 MISG        N/A
SISSETON         N/A     33  31  92 E8        29.61S WCI  26
$$

SDZ017-020-022-023-036>040-048>070-160200-
SOUTHEAST SOUTH DAKOTA

CITY           SKY/WX    TMP DP  RH WIND       PRES   REMARKS
SIOUX FALLS    CLOUDY    38  27  64 S8        29.67F
HURON          CLOUDY    39  28  64 S8        29.62F
CHAMBERLAIN    CLOUDY    45  31  57 SW10      29.64S
MITCHELL       CLOUDY    42  28  57 S9        29.65F
YANKTON        CLOUDY    42  27  55 S7        29.69F
$$

ABBREVIATIONS USED IN REMARKS
   TC - TEMPERATURE IN CELSIUS
  WCI - WIND CHILL INDEX
   HX - HEAT INDEX
  VSB - VISIBILITY




USA.gov is the U.S. government's official web portal to all federal, state and local government web resources and services.